カタログに戻る

COSMOS 1853

運用中ナビゲーションLEO
NORAD 18114·PAYLOAD·🇷🇺 Russia

打ち上げ Jun 16, 1987 から Plesetsk Cosmodrome

Loading…

次のパス (今後24時間)

TLE

最新Source: Space-Track

元期: Sep 14, 2026, 13:36 UTC

1 18114U 87051B   26257.56679787 -.00000010  00000-0  40647-4 0  9990
2 18114  74.0021 290.3851 0005829  45.3970  28.2982 12.47020547786656

AllMySatでCOSMOS 1853をリアルタイム追跡

Download on the App Store